Torna al catalogo

FENGYUN 1C DEB

AttivoSSO
NORAD 30509·DEBRIS·🇨🇳 China

Lanciato May 10, 1999 da Taiyuan Satellite Launch Center

Loading…

Prossimi Passaggi (prossime 24 ore)

TLE

AggiornatoSource: Space-Track

Epoca: Sep 14, 2026, 13:23 UTC

1 30509U 99025AHX 26257.55829985  .00001725  00000-0  97044-3 0  9997
2 30509  98.4534 117.4667 0101765   0.0043  29.4701 14.09086577996050

Traccia FENGYUN 1C DEB in tempo reale con AllMySat

Download on the App Store